Time,TemperatureF,DewpointF,PressureIn,WindDirection,WindDirectionDegrees,WindSpeedMPH,WindSpeedGustMPH,Humidity,HourlyPrecipIn,Conditions,Clouds,dailyrainin,SoftwareType,DateUTC
2014-02-11 06:00:00,-22.0,-27.0,-100.00,SSE,148,1.0,-999.0,76,-99.99,,,-99.99,,2014-02-11 12:00:00,
2014-02-11 06:42:00,-22.0,-27.0,-100.00,SSE,148,1.0,-999.0,76,-99.99,,,-99.99,,2014-02-11 12:42:00,
2014-02-11 06:52:00,-22.0,-27.0,-100.00,SSE,148,1.0,-999.0,76,-99.99,,,-99.99,,2014-02-11 12:52:00,
2014-02-11 09:00:00,-16.0,-22.0,-100.00,SSE,164,0.0,-999.0,73,-99.99,,,-99.99,,2014-02-11 15:00:00,
2014-02-11 09:43:00,-16.0,-22.0,-100.00,SSE,164,0.0,-999.0,73,-99.99,,,-99.99,,2014-02-11 15:43:00,
2014-02-11 09:53:00,-16.0,-22.0,-100.00,SSE,164,0.0,-999.0,73,-99.99,,,-99.99,,2014-02-11 15:53:00,
2014-02-11 10:00:00,-2.0,-11.0,-100.00,South,172,3.0,-999.0,64,-99.99,,,-99.99,,2014-02-11 16:00:00,
2014-02-11 10:43:00,-2.0,-11.0,-100.00,South,172,3.0,-999.0,64,-99.99,,,-99.99,,2014-02-11 16:43:00,
2014-02-11 10:53:00,-2.0,-11.0,-100.00,South,172,3.0,-999.0,64,-99.99,,,-99.99,,2014-02-11 16:53:00,
2014-02-11 11:00:00,5.0,-9.0,-100.00,South,184,6.0,-999.0,53,-99.99,,,-99.99,,2014-02-11 17:00:00,
2014-02-11 11:42:00,5.0,-9.0,-100.00,South,184,6.0,-999.0,53,-99.99,,,-99.99,,2014-02-11 17:42:00,
2014-02-11 11:52:00,5.0,-9.0,-100.00,South,184,6.0,-999.0,53,-99.99,,,-99.99,,2014-02-11 17:52:00,
2014-02-11 12:00:00,9.0,-8.0,-100.00,SSE,160,8.0,-999.0,45,-99.99,,,-99.99,,2014-02-11 18:00:00,
2014-02-11 12:43:00,9.0,-8.0,-100.00,SSE,160,8.0,-999.0,45,-99.99,,,-99.99,,2014-02-11 18:43:00,
2014-02-11 12:53:00,9.0,-8.0,-100.00,SSE,160,8.0,-999.0,45,-99.99,,,-99.99,,2014-02-11 18:53:00,
2014-02-11 13:00:00,12.0,-7.0,-100.00,South,184,10.0,-999.0,42,-99.99,,,-99.99,,2014-02-11 19:00:00,
2014-02-11 13:42:00,12.0,-7.0,-100.00,South,184,10.0,-999.0,42,-99.99,,,-99.99,,2014-02-11 19:42:00,
2014-02-11 13:53:00,12.0,-7.0,-100.00,South,184,10.0,-999.0,42,-99.99,,,-99.99,,2014-02-11 19:53:00,
2014-02-11 14:00:00,14.0,-6.0,-100.00,South,172,10.0,-999.0,39,-99.99,,,-99.99,,2014-02-11 20:00:00,
2014-02-11 14:42:00,14.0,-6.0,-100.00,South,172,10.0,-999.0,39,-99.99,,,-99.99,,2014-02-11 20:42:00,
2014-02-11 14:52:00,14.0,-6.0,-100.00,South,172,10.0,-999.0,39,-99.99,,,-99.99,,2014-02-11 20:52:00,
2014-02-11 15:00:00,17.0,-6.0,-100.00,SSE,168,10.0,-999.0,36,-99.99,,,-99.99,,2014-02-11 21:00:00,
2014-02-11 15:43:00,17.0,-6.0,-100.00,SSE,168,10.0,-999.0,36,-99.99,,,-99.99,,2014-02-11 21:43:00,
2014-02-11 15:54:00,17.0,-6.0,-100.00,SSE,168,10.0,-999.0,36,-99.99,,,-99.99,,2014-02-11 21:54:00,
2014-02-11 16:00:00,16.0,-5.0,-100.00,South,174,9.0,-999.0,38,-99.99,,,-99.99,,2014-02-11 22:00:00,
2014-02-11 16:42:00,16.0,-5.0,-100.00,South,174,9.0,-999.0,38,-99.99,,,-99.99,,2014-02-11 22:42:00,
2014-02-11 16:53:00,16.0,-5.0,-100.00,South,174,9.0,-999.0,38,-99.99,,,-99.99,,2014-02-11 22:53:00,
2014-02-11 17:00:00,15.0,-5.0,-100.00,South,172,7.0,-999.0,40,-99.99,,,-99.99,,2014-02-11 23:00:00,
2014-02-11 17:42:00,15.0,-5.0,-100.00,South,172,7.0,-999.0,40,-99.99,,,-99.99,,2014-02-11 23:42:00,
2014-02-11 17:53:00,15.0,-5.0,-100.00,South,172,7.0,-999.0,40,-99.99,,,-99.99,,2014-02-11 23:53:00,
2014-02-11 18:00:00,14.0,-5.0,-100.00,South,171,8.0,-999.0,42,-99.99,,,-99.99,,2014-02-12 00:00:00,
2014-02-11 18:42:00,14.0,-5.0,-100.00,South,171,8.0,-999.0,42,-99.99,,,-99.99,,2014-02-12 00:42:00,
2014-02-11 18:52:00,14.0,-5.0,-100.00,South,171,8.0,-999.0,42,-99.99,,,-99.99,,2014-02-12 00:52:00,
2014-02-11 19:00:00,14.0,-3.0,-100.00,South,170,8.0,-999.0,45,-99.99,,,-99.99,,2014-02-12 01:00:00,
2014-02-11 19:42:00,14.0,-3.0,-100.00,South,170,8.0,-999.0,45,-99.99,,,-99.99,,2014-02-12 01:42:00,
2014-02-11 19:52:00,14.0,-3.0,-100.00,South,170,8.0,-999.0,45,-99.99,,,-99.99,,2014-02-12 01:52:00,
2014-02-11 20:00:00,13.0,-2.0,-100.00,SSE,162,7.0,-999.0,50,-99.99,,,-99.99,,2014-02-12 02:00:00,
2014-02-11 20:42:00,13.0,-2.0,-100.00,SSE,162,7.0,-999.0,50,-99.99,,,-99.99,,2014-02-12 02:42:00,
2014-02-11 20:52:00,13.0,-2.0,-100.00,SSE,162,7.0,-999.0,50,-99.99,,,-99.99,,2014-02-12 02:52:00,
2014-02-11 21:00:00,14.0,0.0,-100.00,South,175,8.0,-999.0,52,-99.99,,,-99.99,,2014-02-12 03:00:00,
2014-02-11 21:43:00,14.0,0.0,-100.00,South,175,8.0,-999.0,52,-99.99,,,-99.99,,2014-02-12 03:43:00,
2014-02-11 21:54:00,14.0,0.0,-100.00,South,175,8.0,-999.0,52,-99.99,,,-99.99,,2014-02-12 03:54:00,
2014-02-11 22:00:00,13.0,7.0,-100.00,South,187,5.0,-999.0,78,-99.99,,,-99.99,,2014-02-12 04:00:00,
2014-02-11 22:43:00,13.0,7.0,-100.00,South,187,5.0,-999.0,78,-99.99,,,-99.99,,2014-02-12 04:43:00,
2014-02-11 22:53:00,13.0,7.0,-100.00,South,187,5.0,-999.0,78,-99.99,,,-99.99,,2014-02-12 04:53:00,
2014-02-11 23:00:00,13.0,7.0,-100.00,South,183,5.0,-999.0,79,-99.99,,,-99.99,,2014-02-12 05:00:00,
2014-02-11 23:43:00,13.0,7.0,-100.00,South,183,5.0,-999.0,79,-99.99,,,-99.99,,2014-02-12 05:43:00,
2014-02-11 23:52:00,13.0,7.0,-100.00,South,183,5.0,-999.0,79,-99.99,,,-99.99,,2014-02-12 05:52:00,